7 * 24
多渠道服务支持
STARLINK-32786 是 SpaceX Starlink 卫星互联网项目中的一颗低轨卫星,属于第三代星群(v1.5 或 v2 架构)。该卫星于2023年发射,旨在为全球用户提供高速、低延迟的宽带互联网服务。它运行在约550公里高度的近地轨道,配备先进通信设备和激光链路,支持星间通信。Starlink 项目计划部署数万颗卫星,以构建覆盖全球的卫星网络,尤其服务于偏远地区。STARLINK-32786 的部署有助于提升网络容量和稳定性,推动全球互联网普及。
美国
(US)
| 数据来源 | 国际轨道数据 |
| 星历时间: | 2025-11-07T00:46:52+0800 1天前 查看轨道信息 |
| 半长轴: | 6861.162km |
| 偏心率: | 0.0000835 |
| 轨道倾角: | 42.997° |
| 近地点辐角 | 268.704° |
| 升交点赤经 | 194.038° |
| 平近点角 | 91.372° |
| 近地点: | 482.454km |
| 远地点: | 483.6km |
| 周期: | 94.266分钟 |
| 每日圈数: | 15.275882 |